Regional Weather Roundup
Issued by NWS Wakefield, VA

Home | Current Version | Previous Version | Graphics & Text | Print | Product List | Glossary On
Versions: 1 2 3 4 5 6 7 8 9 10 11 12 13 14 15 16 17 18 19 20 21 22 23 24 25 26 27 28 29 30 31 32 33 34 35 36 37 38 39 40 41 42 43 44 45 46 47 48 49 50
000
ASUS41 KAKQ 301015
RWRAKQ

REGIONAL WEATHER ROUNDUP
NATIONAL WEATHER SERVICE WAKEFIELD VA
600 AM EDT SAT JUL 30 2016

Note: "fair" indicates few or no clouds below 12,000 feet with no
significant weather and/or obstructions to visibility. * = Denotes
station may not report precipitation (e.g., rain,snow,etc.),
thunder or fog.

VAZ042-051-052>054-056-301100-
NORTHERN VIRGINIA

CITY           SKY/WX    TMP DP  RH WIND       PRES   REMARKS
WASH NATIONAL  MOCLDY    78  74  87 SE5       29.94R
DULLES         CLOUDY    74  71  91 SE3       29.94S
FORT BELVOIR   MOCLDY    72  72 100 SE1       29.94S
QUANTICO       NOT AVBL
FREDERICKSBRG* FAIR      73  73 100 CALM      29.94R
STAFFORD*      FAIR      69  68  97 CALM      29.99R FOG
WARRENTON      FAIR      73  69  85 CALM      29.94R
CULPEPER*      FAIR      72  72 100 CALM      29.96R FOG
MANASSAS*      FAIR      73  73 100 SE3       29.94S
LEESBURG*      FAIR      73  73 100 W9        29.96R
WINCHESTER     CLOUDY    72  70  94 CALM      29.96R
FRONT ROYAL*   CLOUDY    70  70 100 CALM      29.95R
LURAY*         FAIR     N/A N/A N/A CALM      29.97R
$$

VAZ048-049-060>072-079>083-301100-
CENTRAL AND SOUTH CENTRAL VIRGINIA

CITY           SKY/WX    TMP DP  RH WIND       PRES   REMARKS
RICHMOND       FAIR      73  71  93 SE5       29.94S
CHESTERFIELD*  FAIR      72  59  64 CALM      29.96R
PETERSBURG*    FOG      N/A N/A N/A CALM      29.95S VSB 1
HANOVER        FAIR      71  69  93 CALM      29.97R FOG
TAPPAHANNOCK*  NOT AVBL
QUINTON*       FAIR      71  71 100 CALM      29.94S
CHARLOTTSVILLE MOCLDY    74  70  87 CALM      29.96R
GORDONSVILLE*  FAIR      73  72  99 CALM      29.95R
ORANGE*          N/A     73  73 100 CALM      29.97R
LOUISA*        MOCLDY    73  73 100 CALM      29.95R FOG
BUMPASS*       FAIR      70  70 100 CALM      29.96R
FARMVILLE*     CLOUDY   N/A N/A N/A CALM      29.94S
CREWE*         NOT AVBL
FORT PICKETT*  FAIR      72  71  98 CALM      29.96R
CHASE CITY*    CLOUDY    74  72  95 CALM      29.95S
CLARKSVILLE*   FAIR      73  73 100 CALM      29.94S
SOUTH HILL*    MOCLDY    71  71  99 CALM      30.01R
LAWRENCEVILLE* FAIR      73  73 100 E3        29.95S
EMPORIA*       FAIR      68  68 100 CALM      29.96S FOG
$$

VAZ088>098-301100-
SOUTHEAST VIRGINIA

CITY           SKY/WX    TMP DP  RH WIND       PRES   REMARKS
NORFOLK        FAIR      77  72  84 CALM      29.95R
VIRGINIA BEACH FAIR      78  70  76 CALM      29.95R
NORFOLK NAVAL  FAIR      74  72  93 CALM      29.97R
WEST POINT*    FAIR      71  70  98 CALM      29.96S
SALUDA*        FAIR      73  73 100 CALM      29.95R
NEWPORT NEWS   FAIR      73  73 100 CALM      29.95R
LANGLEY AFB    FAIR      75  73  94 S2        29.95R
FORT EUSTIS    FAIR      76  74  96 S2        29.93R
WILLIAMSBURG*  FAIR      75  75 100 CALM      29.96S
HR EXEC AP*    FAIR      70  66  88 CALM      29.98R
FRANKLIN*      FAIR      72  71  96 CALM      29.96R
US460-WAKEFLD  FAIR      72  70  93 CALM      29.95R FOG
$$

VAZ020-022-025-037-045-301100-
WEST CENTRAL AND SOUTHWEST VIRGINIA

CITY           SKY/WX    TMP DP  RH WIND       PRES   REMARKS
STAUNTON*      MOCLDY    70  69  96 CALM      30.00R
WAYNESBORO*    PTSUNNY   71  69  93 CALM      29.99S
HOT SPRINGS VA FAIR      66  66 100 W13       30.10R
LYNCHBURG      MOCLDY    72  71  97 CALM      29.98R
DANVILLE       CLOUDY    74  72  93 NE3       29.94S
SOUTH BOSTON*  FAIR     N/A N/A N/A CALM      29.94S
MARTINSVILLE   FAIR      71  69  92 NW3       30.00R
ROANOKE        FAIR      70  70 100 W3        30.01R FOG
BLACKSBURG     FOG       68  68 100 CALM      30.07R VSB 1/4
DUBLIN*        FOG       68  68 100 CALM      30.06R VSB 1
MARION*        FOG       67  66  96 W5        30.09S VSB 1/4
HILLSVILLE*    FAIR      66  66 100 CALM      30.06R FOG
RICHLANDS*     FOG       64  64 100 CALM      30.07R VSB 1/4
WISE*          FAIR      64  63  94 SW6       30.08S
ABINGDON*      FOG       68  68 100 CALM      30.06R VSB 3/4
$$

MDZ021>025-VAZ099-100-301100-
SOUTHERN MARYLAND AND THE DELMARVA PENINSULA

CITY           SKY/WX    TMP DP  RH WIND       PRES   REMARKS
PATUXENT RIVER NOT AVBL
BAY BRIDGE APT CLEAR     79  77  94 CALM      29.94R
LEONARDTOWN    CLEAR     72  70  94 CALM      29.97R
DOVER          CLEAR     73  73 100 S3        29.94R FOG
GEORGETOWN     PTCLDY    71  70  96 CALM      29.97R FOG
EASTON         CLEAR     75  75 100 CALM      29.99R
CAMBRIDGE      CLEAR     72  72 100 CALM      29.95R
SALISBURY      NOT AVBL
OCEAN CITY     CLEAR     72  70  93 SE3       29.96R
WALLOPS ISLAND FAIR      76  73  91 CALM      29.96R
ACCOMACK*      NOT AVBL
$$

NCZ012>017-030>032-301100-
NORTH CENTRAL AND EASTERN NORTH CAROLINA

CITY           SKY/WX    TMP DP  RH WIND       PRES   REMARKS
ROANOKE RAPIDS FAIR      70  70 100 CALM      29.95R FOG
RALEIGH        MOCLDY    77  72  84 CALM      29.94R
ELIZABETH CITY CLEAR     75  73  93 CALM      29.95R
AHOSKIE*       CLEAR     72  71  98 CALM      29.95S FOG
EDENTON*       CLEAR    N/A N/A N/A CALM      29.96R
CURRITUCK*     CLEAR     75  75 100 CALM      29.97R
KILL DEVIL HLS CLEAR     74  74 100 CALM      29.95R
MANTEO           N/A     74  74 100 CALM      29.96R
CAPE HATTERAS  CLEAR     78  77  96 E5        29.95R
TARBORO*       FAIR      73  73  99 CALM      29.95S
GOLDSBORO      CLEAR     75  75 100 SE2       29.92S
WASHINGTON     CLEAR     74  73  96 CALM      29.95R
GREENVILLE     CLEAR     77  77 100 CALM      29.97R
NEW BERN       CLEAR     77  75  93 CALM      29.95R
WILMINGTON     PTCLDY    79  76  90 CALM      29.94R
$$

VAZ048-301100-
ELSEWHERE

CITY           SKY/WX    TMP DP  RH WIND       PRES   REMARKS
HARRISBURG PA  PTCLDY    73  71  93 NE3       29.94S
BALTIMORE      MOCLDY    74  71  91 CALM      29.94R FOG
ANNAPOLIS      CLEAR      0   0 100 CALM      29.94R
ANDREWS AFB    FAIR      73  71  94 S2        29.94R
PHILADELPHIA   CLOUDY    75  72  90 CALM      29.97R
GREENSBORO     MOCLDY    76  71  85 NW5       29.95R
ROCKY MOUNT    CLEAR     73  73 100 CALM      29.95R
$$

VAZ100-301100-
MARINE

STATION/POSITION TIME  TEMP    WIND        PRES    WAVE   SWELL
                       AIR SEA DIR/SP/G            HT/PER HT/PER
                 (UTC) (F)     (DEG/KT/KT) (MB)    (FT/S) (FT/S)
BRANDYWINE LGT   0900   74     190/  7/  7   N/A
CAPE MAY NJ      0900   73 73  140/  3/  4 1013.6R
LEWES DE         0900   74 73  150/  3/  4 1013.8R
OCEAN-CITY-INLET 0900   75 73  140/  3/  4 1014.2R
WACHAPREAGUE VA  0900   78 84  140/  4/  5 1013.9R
THOMAS POINT MD  1000   81 83  220/  6/  7 1015.4R
GOOSES REEF MD   1000   82 85  200/  8/  8 1015.1R   1
COVE POINT MD    0900   80     230/  6/  7 1014.1R
SOLOMONS ISLAND  0900   80 85  190/  4/  5   N/A
BISHOPS HEAD MD  0900   81     170/  9/ 12 1013.8R
PINEY POINT MD   0900          210/  6/  6   N/A
POTOMAC MD       1000   82 84  220/  6/  6 1013.1R   0
CAMBRIDGE MD     0900   76 87  160/  2/  5 1012.9R
LEWISETTA VA     0900   79 86  200/  4/  4 1013.1R
RAPPAHANNOCK LGT 0900          140/  6/  7 1014.3R
STINGRAY PT      1000   82 86  110/  6/ 10 1014.6R   1
YORK RVR RNG VA  0900   82     160/  6/  8 1013.3R
YORKTOWN VA      0900   79 84  190/  4/  5 1013.4R
JAMESTOWN VA     1000   79 88  180/  6/  8   N/A     1
DOMINION TERM VA 0900   80     160/  6/  7 1013.9R
KIPTOPEKE VA     0900      80  150/  4/  5   N/A
CHES BAY BRIDGE  0900   80 81  160/  4/  5 1013.7R
CAPE HENRY VA    0900   78     150/  4/  4   N/A
WILLOUBY STN VA  0900   80     180/  5/  6   N/A
CAPE HENRY BUOY  0912      80                N/A     2/ 7
1ST LANDING BUOY 1000   79 81  140/  4/  6 1014.1R   1/ 4
CAPE CHARLES BUO 0926      76                N/A     2/ 6
OFFSHORE WE BUOY 0921      82                N/A     3/ 7
64NM E OF VA BCH 0950   80 83   60/  6/  8 1014.0R   3/ 7   2/ 7
DUCK PIER NC     0900   79 71   50/  3/  3 1013.1R
44100 DUCK FRF   0905      81                N/A     1/ 8
44056 DUCK FRF   0911      79                N/A     1/13
OREGON INLET NC  0900   77 79   30/  2/  3 1013.7R
HATTERAS NC      0900   80 83  130/  1/  1 1013.2R
DIAMOND SHLS NC  0950   83 86   10/  4/  6 1014.0R   2/ 6   2/ 6
CAPE LOOKOUT NC  1000   83     310/  3/  4 1013.6R
$$



USA.gov is the U.S. government's official web portal to all federal, state and local government web resources and services.